• In Austria
  • List of Countries
  • For 7 days
  • Water Temperature
  • Satellite Maps
  • Weather Map
  • News
  • Weather Widgets
  • user-avatar
    Login

    Hourly Weather La Rioja

    Today, 18 December, Monday

    Time Temperature Precipitation Wind Pressure Humidity
    00:00 +24°C° 0 mm 2 mps 719 mmHg 28%
    01:00 +23°C° 0 mm 2 mps 719 mmHg 29%
    02:00 +23°C° 0 mm 2 mps 718 mmHg 32%
    03:00 +23°C° 0 mm 2 mps 718 mmHg 32%
    04:00 +21°C° 0 mm 2 mps 718 mmHg 32%
    05:00 +21°C° 0 mm 2 mps 717 mmHg 32%
    06:00 +23°C° 0 mm 2 mps 717 mmHg 31%
    07:00 +23°C° 0 mm 2 mps 717 mmHg 30%
    08:00 +25°C° 0 mm 3 mps 717 mmHg 30%
    09:00 +26°C° 0 mm 3 mps 716 mmHg 28%
    10:00 +28°C° 0 mm 3 mps 716 mmHg 27%
    11:00 +29°C° 0 mm 3 mps 715 mmHg 26%
    12:00 +32°C° 0 mm 4 mps 714 mmHg 24%
    13:00 +33°C° 0 mm 4 mps 714 mmHg 23%
    14:00 +34°C° 0 mm 4 mps 713 mmHg 22%
    15:00 +34°C° 0 mm 4 mps 713 mmHg 22%
    16:00 +35°C° 0 mm 5 mps 712 mmHg 22%
    17:00 +35°C° 0 mm 5 mps 712 mmHg 22%
    18:00 +34°C° 0 mm 5 mps 712 mmHg 25%
    19:00 +32°C° 0 mm 4 mps 713 mmHg 29%
    20:00 +30°C° 0 mm 4 mps 713 mmHg 32%
    21:00 +30°C° 0 mm 3 mps 713 mmHg 35%
    22:00 +29°C° 0 mm 3 mps 714 mmHg 38%
    23:00 +28°C° 0 mm 2 mps 715 mmHg 40%

    Tomorrow, 19 December, Tuesday

    Time Temperature Precipitation Wind Pressure Humidity
    00:00 +27°C° 0 mm 2 mps 714 mmHg 43%
    01:00 +27°C° 0 mm 2 mps 714 mmHg 45%
    02:00 +26°C° 0 mm 2 mps 714 mmHg 48%
    03:00 +26°C° 0 mm 2 mps 713 mmHg 50%
    04:00 +25°C° 0 mm 2 mps 713 mmHg 52%
    05:00 +25°C° 0 mm 2 mps 713 mmHg 55%
    06:00 +26°C° 0 mm 2 mps 713 mmHg 51%
    07:00 +27°C° 0 mm 2 mps 714 mmHg 48%
    08:00 +29°C° 0 mm 2 mps 714 mmHg 45%
    09:00 +30°C° 0 mm 2 mps 714 mmHg 40%
    10:00 +32°C° 0 mm 2 mps 714 mmHg 36%
    11:00 +34°C° 0 mm 2 mps 714 mmHg 32%
    12:00 +35°C° 0 mm 3 mps 713 mmHg 29%
    13:00 +37°C° 0 mm 3 mps 713 mmHg 27%
    14:00 +38°C° 0 mm 3 mps 713 mmHg 25%
    15:00 +38°C° 0 mm 4 mps 712 mmHg 25%
    16:00 +38°C° 0 mm 4 mps 712 mmHg 25%
    17:00 +40°C° 0 mm 5 mps 711 mmHg 25%
    18:00 +37°C° 0.2 mm 5 mps 712 mmHg 30%
    19:00 +36°C° 0.2 mm 5 mps 712 mmHg 34%
    20:00 +34°C° 0.2 mm 5 mps 713 mmHg 39%
    21:00 +33°C° 0.2 mm 5 mps 713 mmHg 46%
    22:00 +30°C° 0.2 mm 4 mps 714 mmHg 52%
    23:00 +29°C° 0.2 mm 4 mps 714 mmHg 58%

    Day after tomorrow, 20 December, Wednesday

    Time Temperature Precipitation Wind Pressure Humidity
    00:00 +28°C° 0 mm 3 mps 714 mmHg 62%
    01:00 +27°C° 0 mm 3 mps 713 mmHg 66%
    02:00 +27°C° 0 mm 2 mps 713 mmHg 70%
    03:00 +26°C° 0 mm 2 mps 713 mmHg 72%
    04:00 +26°C° 0 mm 2 mps 712 mmHg 74%
    05:00 +25°C° 0 mm 2 mps 712 mmHg 76%
    06:00 +26°C° 0 mm 2 mps 712 mmHg 72%
    07:00 +27°C° 0 mm 1 mps 712 mmHg 68%
    08:00 +28°C° 0 mm 1 mps 712 mmHg 63%
    09:00 +30°C° 0 mm 2 mps 712 mmHg 56%
    10:00 +31°C° 0 mm 2 mps 712 mmHg 49%
    11:00 +34°C° 0 mm 2 mps 711 mmHg 41%
    12:00 +35°C° 0 mm 3 mps 711 mmHg 38%
    13:00 +37°C° 0 mm 3 mps 710 mmHg 35%
    14:00 +38°C° 0 mm 3 mps 709 mmHg 32%
    15:00 +38°C° 0.2 mm 4 mps 708 mmHg 31%
    16:00 +40°C° 0.2 mm 4 mps 708 mmHg 31%
    17:00 +40°C° 0.2 mm 4 mps 707 mmHg 30%
    18:00 +38°C° 0.3 mm 4 mps 708 mmHg 34%
    19:00 +36°C° 0.3 mm 4 mps 708 mmHg 38%
    20:00 +35°C° 0.3 mm 4 mps 708 mmHg 42%
    21:00 +34°C° 0.4 mm 3 mps 709 mmHg 45%
    22:00 +33°C° 0.4 mm 3 mps 709 mmHg 48%
    23:00 +31°C° 0.4 mm 2 mps 710 mmHg 50%

    21 December, Thursday

    Time Temperature Precipitation Wind Pressure Humidity
    00:00 +31°C° 0 mm 2 mps 710 mmHg 51%
    01:00 +30°C° 0 mm 1 mps 709 mmHg 52%
    02:00 +30°C° 0 mm 1 mps 709 mmHg 52%
    03:00 +30°C° 0 mm 1 mps 709 mmHg 52%
    04:00 +29°C° 0 mm 1 mps 709 mmHg 52%
    05:00 +29°C° 0 mm 1 mps 709 mmHg 51%
    06:00 +30°C° 0 mm 2 mps 710 mmHg 49%
    07:00 +31°C° 0 mm 2 mps 711 mmHg 46%
    08:00 +33°C° 0 mm 3 mps 711 mmHg 43%
    09:00 +34°C° 0.7 mm 4 mps 712 mmHg 41%
    10:00 +36°C° 0.7 mm 5 mps 712 mmHg 39%
    11:00 +37°C° 0.7 mm 5 mps 712 mmHg 37%
    12:00 +37°C° 0.5 mm 5 mps 712 mmHg 36%
    13:00 +39°C° 0.5 mm 5 mps 711 mmHg 35%
    14:00 +38°C° 0.5 mm 4 mps 711 mmHg 34%
    15:00 +38°C° 0.5 mm 4 mps 710 mmHg 35%
    16:00 +37°C° 0.5 mm 4 mps 710 mmHg 37%
    17:00 +37°C° 0.5 mm 4 mps 709 mmHg 39%
    18:00 +36°C° 1.6 mm 4 mps 709 mmHg 43%
    19:00 +35°C° 1.6 mm 4 mps 710 mmHg 48%
    20:00 +33°C° 1.6 mm 4 mps 710 mmHg 53%
    21:00 +33°C° 1.8 mm 3 mps 710 mmHg 55%
    22:00 +31°C° 1.8 mm 2 mps 710 mmHg 58%
    23:00 +30°C° 1.8 mm 2 mps 711 mmHg 60%

    22 December, Friday

    Time Temperature Precipitation Wind Pressure Humidity
    00:00 +30°C° 1.7 mm 2 mps 710 mmHg 61%
    01:00 +29°C° 1.7 mm 2 mps 709 mmHg 62%
    02:00 +29°C° 1.7 mm 2 mps 709 mmHg 62%
    03:00 +28°C° 0.5 mm 2 mps 709 mmHg 63%
    04:00 +28°C° 0.5 mm 2 mps 709 mmHg 63%
    05:00 +28°C° 0.5 mm 1 mps 709 mmHg 64%
    06:00 +29°C° 0.3 mm 1 mps 709 mmHg 59%
    07:00 +30°C° 0.3 mm 1 mps 709 mmHg 54%
    08:00 +31°C° 0.3 mm 1 mps 710 mmHg 49%
    09:00 +34°C° 0.2 mm 2 mps 710 mmHg 45%
    10:00 +35°C° 0.2 mm 2 mps 710 mmHg 41%
    11:00 +36°C° 0.2 mm 3 mps 709 mmHg 37%
    12:00 +37°C° 0.5 mm 4 mps 709 mmHg 36%
    13:00 +38°C° 0.5 mm 4 mps 709 mmHg 36%
    14:00 +39°C° 0.5 mm 5 mps 708 mmHg 36%
    15:00 +39°C° 0.7 mm 5 mps 708 mmHg 37%
    16:00 +39°C° 0.7 mm 5 mps 708 mmHg 38%
    17:00 +37°C° 0.7 mm 5 mps 708 mmHg 40%
    18:00 +36°C° 1.1 mm 4 mps 708 mmHg 43%
    19:00 +35°C° 1.1 mm 4 mps 709 mmHg 47%
    20:00 +34°C° 1.1 mm 3 mps 710 mmHg 51%
    21:00 +33°C° 3.9 mm 4 mps 710 mmHg 58%
    22:00 +30°C° 3.9 mm 5 mps 711 mmHg 65%
    23:00 +28°C° 3.9 mm 5 mps 712 mmHg 72%

    23 December, Saturday

    Time Temperature Precipitation Wind Pressure Humidity
    00:00 +27°C° 6 mm 5 mps 712 mmHg 75%
    01:00 +27°C° 6 mm 5 mps 712 mmHg 78%
    02:00 +26°C° 6 mm 5 mps 712 mmHg 81%
    03:00 +25°C° 3.1 mm 4 mps 713 mmHg 81%
    04:00 +25°C° 3.1 mm 3 mps 713 mmHg 80%
    05:00 +24°C° 3.1 mm 2 mps 714 mmHg 80%
    06:00 +25°C° 0.6 mm 2 mps 715 mmHg 76%
    07:00 +25°C° 0.6 mm 2 mps 715 mmHg 72%
    08:00 +25°C° 0.6 mm 2 mps 716 mmHg 68%
    09:00 +26°C° 0.2 mm 2 mps 716 mmHg 63%
    10:00 +27°C° 0.2 mm 2 mps 716 mmHg 58%
    11:00 +29°C° 0.2 mm 3 mps 716 mmHg 53%
    12:00 +29°C° 0.4 mm 3 mps 715 mmHg 51%
    13:00 +30°C° 0.4 mm 4 mps 714 mmHg 48%
    14:00 +32°C° 0.4 mm 4 mps 713 mmHg 46%
    15:00 +32°C° 0.1 mm 4 mps 713 mmHg 44%
    16:00 +32°C° 0.1 mm 4 mps 712 mmHg 42%
    17:00 +33°C° 0.1 mm 4 mps 711 mmHg 40%
    18:00 +32°C° 0.1 mm 4 mps 712 mmHg 42%
    19:00 +30°C° 0.1 mm 4 mps 712 mmHg 44%
    20:00 +29°C° 0.1 mm 4 mps 713 mmHg 46%
    21:00 +28°C° 0 mm 4 mps 713 mmHg 50%
    22:00 +28°C° 0 mm 4 mps 713 mmHg 53%
    23:00 +27°C° 0 mm 4 mps 714 mmHg 57%
    Show more